Location: *
(32.8667°N, 13.1833°E)
Time: 00:20:29
(UTC+00:00)

Meteor 2-11 Rocket - Pass Details

Date: 18 July 2019
Orbit: 940 x 956 km, 82.5° (Epoch: 20 August)

Event Time Altitude Azimuth Distance (km) Brightness Sun altitude
Exits shadow 20:38:24 54° 168° (SSE) 1,132 4.5 -24.7°
Maximum altitude 20:39:52 79° 94° (E) 961 4.3 -24.9°
Drops below altitude 10° 20:45:57 10° 9° (N) 2,664 7.3 -25.7°
Sets 20:48:26 0° 9° (N) 3,614 8.1 -26.0°
